Regional Weather Roundup
Issued by NWS

Home | Current Version | Previous Version | Graphics & Text | Print | Product List | Glossary On
Versions: 1 2 3 4 5 6 7 8 9 10 11 12 13 14 15 16 17 18 19 20 21 22 23 24 25 26 27 28 29 30 31 32 33 34 35 36 37 38 39 40 41 42 43 44 45 46 47 48 49 50
000
ASUS43 KDTX 262101
RWRMI
MICHIGAN HOURLY REGIONAL WEATHER ROUNDUP
NATIONAL WEATHER SERVICE DETROIT/PONTIAC MI
500 PM EDT WED APR 26 2017

NOTE: "FAIR" INDICATES FEW OR NO CLOUDS BELOW 12,000 FEET WITH NO
SIGNIFICANT WEATHER AND/OR OBSTRUCTION TO VISIBILITY.

MIZ047>049-052>055-059>063-066>070-074>076-081>083-262200-
SOUTHEAST LOWER MICHIGAN

CITY           SKY/WX    TMP DP  RH WIND       PRES   REMARKS
ADRIAN         MOSUNNY   82  56  40 SW22      29.53F
ALMA           MOSUNNY   80  57  44 S17G31    29.46F
ANN ARBOR      SUNNY     83  54  36 S13G29    29.52F
BAD AXE        SUNNY     75  56  52 S26       29.56R
CARO           MOSUNNY   78  58  50 S10G20    29.51F
DETROIT CITY   SUNNY     78  59  51 SE13G22   29.57S
DETROIT        PTSUNNY   79  57  46 S14G21    29.56F
FLINT          PTSUNNY   78  58  49 S20G30    29.51F
GROSSE ILE     SUNNY     74  58  56 SE8       29.55S
HILLSDALE      PTSUNNY   79  55  44 S13G23    29.53S
HOWELL         PTSUNNY   82  50  32 S15G23    29.51F

CITY           SKY/WX    TMP DP  RH WIND       PRES   REMARKS
JACKSON        PTSUNNY   80  57  45 S21G29    29.52F
LAMBERTVILLE   SUNNY     84  52  32 SW12G26   29.53S
LANSING        MOSUNNY   82  57  42 S22G31    29.50F
LAPEER         FAIR      76  57  50 S12G17    29.56F
MASON          PTSUNNY   79  57  47 S7G21     29.51S
MONROE         SUNNY     74  57  54 E10G16    29.53F
MT. CLEMENS    PTSUNNY   71  59  65 SE15      29.58S
PONTIAC        MOSUNNY   78  56  46 SE14G25   29.54S
PORT HOPE        N/A     69  56  62 SE20G31   29.54S
PORT HURON     SUNNY     75  54  46 SE12G22   29.59R
TRI CITIES     MOSUNNY   81  59  47 S20G26    29.47F
MIDLAND        FAIR      82  54  38 S15G21    29.45F
TROY           SUNNY     80  54  41 S9G20     29.58S
SAGINAW HB     MOSUNNY   79  52  38 S16G25    29.48F
$$
MIZ043>046-050>051-056>058-064>065-071>073-077>080-262200-
SOUTHWEST LOWER MICHIGAN

CITY           SKY/WX    TMP DP  RH WIND       PRES   REMARKS
BATTLE CREEK   PTSUNNY   80  58  46 S20G25    29.50S
BENTON HARBOR  SUNNY     73  54  51 W16       29.49S
BIG RAPIDS     CLOUDY    76  56  48 W20G26    29.46R
COLDWATER      PTSUNNY   81  55  40 SW14G23   29.51S
FREMONT        FAIR      75  53  46 W21G28    29.47R
HOLLAND        SUNNY     72  58  61 W15       29.50R
GRAND RAPIDS   CLOUDY    77  59  53 W23G32    29.48R
IONIA          PTSUNNY   81  54  39 S14G29    29.46S
KALAMAZOO      PTSUNNY   80  54  40 SW18      29.48S
LUDINGTON      PTSUNNY   66  57  74 SW21G28   29.46R
MARSHALL       PTSUNNY   81  59  47 S13G20    29.50S
MOUNT PLEASANT PTSUNNY   79  54  42 S17G28    29.44F
MUSKEGON       MOSUNNY   72  56  57 SW12G20   29.48R
SOUTH HAVEN    MOSUNNY   71  56  59 W7        29.49F
$$
MIZ016>042-262200-
NORTHERN LOWER MICHIGAN

CITY           SKY/WX    TMP DP  RH WIND       PRES   REMARKS
ALPENA         MOSUNNY   69  56  62 E13G23    29.51F
BEAVER ISLAND  LGT RAIN  56  54  94 SW8       29.44S
BELLAIRE       CLOUDY    68  55  63 SW6       29.43S
CADILLAC       PTSUNNY   75  58  55 SW20G31   29.46R
CHARLEVOIX     PTSUNNY   63  57  81 SW8       29.46F
FRANKFORT      CLOUDY    63  54  71 S12G22    29.44S
GAYLORD        CLOUDY    75  53  46 S16G23    29.44F
GRAYLING       CLOUDY    73  55  53 S10G17    29.45F
HARBOR SPRINGS CLOUDY    58  57  97 W5        29.45R
HOUGHTON LAKE  CLOUDY    73  56  54 S12G24    29.46F
MANISTEE       MOSUNNY   72  57  59 SW18G26   29.44R
OSCODA         CLOUDY    68  53  58 SE14G21   29.52F
PELLSTON       LGT RAIN  62  57  83 W10G23    29.45R
ROGERS CITY    CLOUDY    68  56  64 SE20G32   29.49F
TRAVERSE CITY  CLOUDY    76  57  51 SW10G24   29.40F
$$
MIZ007>008-015-262200-
EASTERN UPPER MICHIGAN

CITY           SKY/WX    TMP DP  RH WIND       PRES   REMARKS
KINROSS        CLOUDY    56  51  84 E23G31    29.45F
MACKINAC ISLAN LGT SNOW  47  47 100 E13G23    29.44R
NEWBERRY       CLOUDY    54  53  97 SE13G22   29.42F
S. S. MARIE    LGT RAIN  57  51  80 E15G23    29.48F
MUNISING         N/A     56  54  93 S7        29.38F
$$
MIZ004>006-011>014-085-262200-
CENTRAL UPPER MICHIGAN

CITY           SKY/WX    TMP DP  RH WIND       PRES   REMARKS
MANISTIQUE     RAIN      46  46  97 E9        29.40F
ESCANABA       FOG       51  50  96 S6        29.39F VSB 1
MENOMINEE      PTSUNNY   61  57  87 SW10      29.39F
SAWYER-GWINN   CLOUDY    45  45 100 E3        29.37F FOG
$$
MIZ001>003-009>011-084-262200-
WESTERN UPPER MICHIGAN

CITY           SKY/WX    TMP DP  RH WIND       PRES   REMARKS
IRON MOUNTAIN  CLOUDY    56  53  90 SE6       29.35F
HOUGHTON       RAIN      37  34  89 NE8       29.44R FOG     WCI  31
COPPER HARBOR    N/A     35  34  96 E14       29.46F WCI  26
IRONWOOD       CLOUDY    33  31  92 N8G16     29.49S FOG     WCI  26
$$

ABBREVIATIONS USED IN REMARKS
   TC - TEMPERATURE IN CELSIUS
  WCI - WIND CHILL INDEX
   HX - HEAT INDEX
  VSB - VISIBILITY




USA.gov is the U.S. government's official web portal to all federal, state and local government web resources and services.